World > North America > United States > Oregon

Rainier, Oregon Regional Weather

Lat: 46.09N, Lon: 122.95W
Wx Zone: ORZ005Web Search

Pass this page to a friend. Tell them to point their camera at the QR Code near the bottom of this page.

Feedback


°F Click to change Rainier hourly weather to Imperial units.Click to change Rainier hourly weather to Metric units. °C
Rainier Weather Map
UTC Time: 5/17/2021, 00:22
Your Time:

Rainier, OR Regional Weather

Expires:202105170100;;229564
ASUS46 KPQR 170010
RWROR 

OREGON REGIONAL WEATHER ROUNDUP
NATIONAL WEATHER SERVICE PORTLAND OR
500 PM PDT SUN MAY 16 2021

NOTE: "FAIR" INDICATES FEW OR NO CLOUDS BELOW 12,000 FEET WITH
NO SIGNIFICANT WEATHER AND/OR OBSTRUCTIONS TO VISIBILITY.


ORZ001>013-170100-
NORTHWEST OREGON

  
CITY           SKY/WX    TMP DP  RH WIND       PRES   REMARKS
ASTORIA        CLOUDY    55  49  80 NW15      29.99F                  
6HR MIN TEMP:  53; 6HR MAX TEMP:  58;                                

TILLAMOOK      PTSUNNY   57  50  77 NW13      30.01S                  
NEWPORT        CLOUDY    50  48  93 N13       30.03S FOG              
FLORENCE       CLOUDY    55  48  79 NW21G31   29.97S                  
PORTLAND       MOSUNNY   82  46  28 N6        29.86F                  
6HR MIN TEMP:  65; 6HR MAX TEMP:  82;                                

VANCOUVER WA   SUNNY     82  43  25 N8        29.86F                  
6HR MIN TEMP:  64; 6HR MAX TEMP:  82;                                

SCAPPOOSE      SUNNY     82  46  28 N15       29.86F                  
6HR MIN TEMP:  68; 6HR MAX TEMP:  83;                                

HILLSBORO      SUNNY     82  51  34 E8        29.86F                  
6HR MIN TEMP:  66; 6HR MAX TEMP:  83;                                

AURORA         SUNNY     83  46  27 N6        29.87F                  
6HR MIN TEMP:  66; 6HR MAX TEMP:  83;                                

MCMINNVILLE    NOT AVBL                                               
SALEM          SUNNY     83  47  28 N6        29.86F                  
6HR MIN TEMP:  69; 6HR MAX TEMP:  84;                                

EUGENE         SUNNY     81  46  29 NE10      29.88F                  
6HR MIN TEMP:  68; 6HR MAX TEMP:  82;                                

CRESWELL       SUNNY     81  45  28 N7        29.87F                  
$$


SKY/WX - Weather  TMP - Temperature  DP - Dew Point  RH - Relative Humidity
WIND - Wind Direction/Speed PRES - Barometric Pressure VSB - Visibility
WCI - Wind Chill Index E13G22 Wind - East Wind 13 mph/Gusts of 22 mph